Regional Weather Roundup
Issued by NWS

Home | Current Version | Previous Version | Graphics & Text | Print | Product List | Glossary On
Versions: 1 2 3 4 5 6 7 8 9 10 11 12 13 14 15 16 17 18 19 20 21 22 23 24 25 26 27 28 29 30 31 32 33 34 35 36 37 38 39 40 41 42 43 44 45 46 47 48 49 50
000
ASUS43 KMPX 220310
RWRMN
WEATHER ROUNDUP FOR MINNESOTA
NATIONAL WEATHER SERVICE TWIN CITIES/CHANHASSEN MN
1000 PM CDT MON AUG 21 2017


NOTE: "FAIR" INDICATES FEW OR NO CLOUDS BELOW 12,000 FEET WITH NO
SIGNIFICANT WEATHER AND/OR OBSTRUCTIONS TO VISIBILITY. N/A MEANS
CURRENT SKY AND/OR WEATHER CONDITIONS ARE NOT AVAILABLE.

MNZ060>063-068>070-220400-
   Twin Cities Metro

CITY           SKY/WX    TMP DP  RH WIND       PRES   REMARKS
TWIN CITIES    CLOUDY    69  63  81 W12       29.86S
ST PAUL        MOCLDY    68  65  90 W12       29.86S
CRYSTAL        CLOUDY    69  62  78 W12       29.84S
BLAINE         CLOUDY    72  64  78 W10G21    29.85S
LAKEVILLE      MOCLDY    66  64  94 W9        29.87F
EDEN PRAIRIE   CLOUDY    69  64  84 W10       29.86S
SOUTH ST PAUL  CLOUDY    68  65  90 W9        29.85F
LAKE ELMO      FAIR      68  63  83 SW12G17   29.86F
$$
MNZ001>005-007-008-013>017-022>024-027-028-220400-
   Northwest Minnesota

CITY           SKY/WX    TMP DP  RH WIND       PRES   REMARKS
BEMIDJI        MOCLDY    55  55 100 W3        29.90R
HALLOCK        CLEAR     55  54  94 N6        29.97R
ROSEAU         PTCLDY    57  54  88 NW7       29.94R
WARROAD        MOCLDY    57  54  88 NW6       29.94R
THIEF RVR FALL PTCLDY    58  54  86 NW14      29.96R
CROOKSTON      CLEAR     57  55  94 NW15      29.97R
FOSSTON        MOCLDY    55  54  94 NW5       29.94R
DETROIT LAKES  CLEAR     61  55  82 NW8       29.93R
MOORHEAD       PTCLDY    66  55  68 NW15G22   29.95R
PARK RAPIDS    CLOUDY    63  60  90 NW7       29.90R
MAHNOMEN       CLOUDY    60  55  86 N15G23    29.94R
$$
MNZ006-009>011-018-025>026-220400-
   North Central Minnesota

CITY           SKY/WX    TMP DP  RH WIND       PRES   REMARKS
BAUDETTE       HVY RAIN  59  57  93 N15       29.89R FOG
FLAG ISLAND    PTCLDY    61  54  77 N3        29.91S
INTL FALLS     FOG       51  50  96 CALM      29.87  VSB 1/4
WASKISH        FOG       52  52 100 CALM      29.89S VSB 3/4
BIG FORK       FOG       54  52  94 CALM      29.87S VSB 1/2
LONGVILLE      MOCLDY    63  57  82 CALM      29.88R
GRAND RAPIDS   CLOUDY    60  56  86 N6        29.88R
CRANE LAKE     CLOUDY    55  54  94 CALM      29.87
ORR            CLOUDY    55  52  88 CALM      29.84F
COOK           CLOUDY    55  55 100 CALM      29.86F
WALKER         CLOUDY    59  57  92 CALM      29.89R
$$
MNZ012-019>021-037-220400-
   Northeast Minnesota

CITY           SKY/WX    TMP DP  RH WIND       PRES   REMARKS
DULUTH         TSTM      58  58 100 VRB3      29.83R FOG
ELY            CLOUDY    57  54  88 N5        29.85F
HIBBING        CLOUDY    59  57  93 N6        29.85F
EVELETH        CLOUDY    59  55  85 N5        29.86S
DULUTH HARBOR  CLOUDY    61  61 100 NE17      29.81S
TWO HARBORS    LGT RAIN  61  55  82 NE3       29.82R
SILVER BAY     RAIN      57  55  94 CALM      29.83R
GRAND MARAIS     N/A     60  59  96 CALM      29.84R
G MARAIS ARPRT RAIN      55  52  88 CALM      29.88R
$$
MNZ029>031-032-039>041-046>048-054>057-064-220400-
   West Central Minnesota

CITY           SKY/WX    TMP DP  RH WIND       PRES   REMARKS
FERGUS FALLS   CLEAR     61  61 100 NW8       29.93R
WHEATON        CLEAR     64  57  77 W7        29.97R
MORRIS         CLEAR     64  61  88 NW9       29.93R
ALEXANDRIA     CLEAR     65  60  84 W12       29.93R
ELBOW LAKE     FAIR      64  60  85 NW9       29.94R
WADENA         PTCLDY    63  59  88 NW8       29.90R
GLENWOOD       CLEAR     63  61  94 W9        29.93R
APPLETON       CLEAR     64  59  82 W6        29.93R
BENSON         CLEAR     63  59  88 NW6       29.94R
ORTONVILLE     CLEAR     66  59  77 MISG      29.95R
MADISON        CLEAR     64  64 100 W6        29.95R
WILLMAR        FAIR      64  63  94 W8        29.93R
$$
MNZ033>034-036-042>043-049>051-058-059-220400-
   Central Minnesota

CITY           SKY/WX    TMP DP  RH WIND       PRES   REMARKS
ST CLOUD       PTCLDY    66  64  93 W10       29.87R
SAUK CENTRE    FAIR      64  62  94 W10       29.90R
PAYNESVILLE    CLEAR     64  63  97 W7        29.91R
AITKIN         TSTM      64  63  94 W5        29.85R
PINE RIVER     LGT RAIN  63  57  82 CALM      29.91R
BRAINERD       LGT RAIN  63  60  90 NW7       29.86R
STAPLES        PTCLDY    63  61  94 W6        29.88R
LONG PRAIRIE   FAIR      63  61  94 SW9       29.90R
LITTLE FALLS   PTCLDY    64  61  88 W6        29.87R
LITCHFIELD     CLOUDY    66  66 100 W9G16     29.90F
BUFFALO        CLOUDY    68  63  84 W10       29.88S
MAPLE LAKE     CLOUDY    68  65  91 W7        29.88S
HUTCHINSON     CLEAR     67  65  94 W10       29.91S
$$
MNZ037-044-045-052-053-220400-
   East Central Minnesota

CITY           SKY/WX    TMP DP  RH WIND       PRES   REMARKS
PRINCETON      CLOUDY    70  64  83 W10G17    29.85S
MORA           CLOUDY    66  63  88 W12       29.86R
CAMBRIDGE      CLOUDY    70  63  78 SW7       29.85S
RUSH CITY      CLOUDY    67  63  86 SW6       29.84S
MOOSE LAKE     CLOUDY    66  63  88 W3        29.81R
HINCKLEY       CLOUDY    68  66  94 SW9       29.83R
CLOQUET        TSTM      63  61  94 N6        29.82R
MCGREGOR       CLOUDY    64  63  94 NW7       29.85R
$$
MNZ071>073-080-081-089-090-097-098-220400-
   Southwest Minnesota

CITY           SKY/WX    TMP DP  RH WIND       PRES   REMARKS
MONTEVIDEO     CLEAR     63  63 100 CALM      29.93S
GRANITE FALLS  PTCLDY    65  64  97 SW6       29.95R
CANBY          CLEAR     66  61  83 CALM      29.97S
MARSHALL       MOCLDY    65  62  90 W10       29.95S
REDWOOD FALLS  CLOUDY    67  63  87 W9        29.92S
OLIVIA         CLOUDY    64  63  94 W10       29.92S
PIPESTONE      CLEAR     66  64  94 W6        29.99R
WINDOM         CLOUDY    66  63  88 W9        29.95S
WORTHINGTON    MOCLDY    64  62  93 W8        29.98R
JACKSON        CLOUDY    63  61  94 CALM      29.97R
TRACY          CLOUDY    66  65  96 W6        29.96S
SLAYTON        CLOUDY    64  60  86 SW6       29.98F
$$
MNZ065>067-074>077-082>085-091>093-220400-
   South Central Minnesota

CITY           SKY/WX    TMP DP  RH WIND       PRES   REMARKS
MANKATO        MOCLDY    67  63  87 W13       29.91F
NEW ULM        CLOUDY    66  63  88 W9        29.92S
ST JAMES       CLOUDY    66  63  88 W7        29.94S
GLENCOE        CLOUDY    68  67  94 W6        29.90R
FARIBAULT      MOCLDY    66  63  88 SW8       29.90F
OWATONNA       CLOUDY    64  63  94 SW7       29.92S
WASECA         CLOUDY    63  61  94 SW5       29.93F
ALBERT LEA     CLOUDY    66  66 100 W6        29.94R
$$
MNZ078>079-086>088-094>096-220400-
   Southeast Minnesota

CITY           SKY/WX    TMP DP  RH WIND       PRES   REMARKS
ROCHESTER      CLOUDY    64  63  96 W8        29.92F
RED WING       CLOUDY    66  63  88 SW5       29.86F
STANTON        MOCLDY    66  63  87 SW8       29.88S
DODGE CENTER   CLOUDY    64  63  94 W10       29.92S
WINONA         CLOUDY    70  64  83 CALM      29.89F
AUSTIN         CLOUDY    64  63  94 W7        29.93R
PRESTON        CLOUDY    63  61  93 NW7       29.91R
$$
ABBREVIATIONS USED IN REMARKS
   TC - TEMPERATURES IN CELSIUS
  WCI - WIND CHILL INDEX
   HX - HEAT INDEX
  VSB - VISIBILITY
$$



USA.gov is the U.S. government's official web portal to all federal, state and local government web resources and services.